EST,Max TemperatureF,Mean TemperatureF,Min TemperatureF,Max Dew PointF,MeanDew PointF,Min DewpointF,Max Humidity, Mean Humidity, Min Humidity, Max Sea Level PressureIn, Mean Sea Level PressureIn, Min Sea Level PressureIn, Max VisibilityMiles, Mean VisibilityMiles, Min VisibilityMiles, Max Wind SpeedMPH, Mean Wind SpeedMPH, Max Gust SpeedMPH,PrecipitationIn, CloudCover, Events, WindDirDegrees
2012-11-1,62,51,39,42,38,36,86,63,40,29.87,29.80,29.73,10,10,10,16,5,25,0.00,2,,272
2012-11-2,66,53,39,42,37,33,96,64,31,29.97,29.89,29.80,10,10,10,17,5,23,0.00,0,,248
2012-11-3,59,48,36,40,36,33,100,70,40,30.09,30.05,29.97,10,10,7,13,4,17,0.00,0,,302
2012-11-4,63,51,38,48,43,37,100,79,57,30.10,30.02,29.96,10,10,4,15,7,18,0.01,3,Rain,42
2012-11-5,57,50,43,43,38,34,86,66,46,30.14,30.06,29.99,10,10,10,16,8,21,0.00,2,,26
2012-11-6,48,44,40,45,40,35,93,82,71,30.12,30.00,29.86,10,9,6,15,9,21,0.27,5,Rain,7
2012-11-7,51,46,41,43,40,36,92,82,71,29.92,29.85,29.81,10,9,4,16,9,23,0.07,8,Rain,334
2012-11-8,59,48,36,37,31,25,92,59,26,30.09,30.01,29.92,10,10,10,14,6,21,0.00,0,,301
2012-11-9,62,47,31,39,32,27,92,61,29,30.29,30.22,30.10,10,10,10,10,2,14,0.00,0,,340
2012-11-10,70,53,35,46,40,34,92,62,31,30.43,30.36,30.29,10,10,4,7,2,9,0.00,0,,163
2012-11-11,73,57,40,54,46,39,100,75,49,30.52,30.47,30.43,10,4,0,9,2,12,0.00,1,Fog,120
2012-11-12,78,63,48,65,55,46,100,80,60,30.47,30.38,30.26,10,5,0,15,4,20,0.17,3,Fog-Rain,153
2012-11-13,70,58,46,63,55,43,100,89,78,30.38,30.26,30.19,10,7,0,20,8,25,T,6,Fog-Rain,17
2012-11-14,52,49,45,43,40,38,86,75,63,30.43,30.38,30.33,10,10,10,18,12,25,0.00,8,,20
2012-11-15,55,50,44,49,44,37,93,82,71,30.32,30.24,30.20,10,10,8,16,9,20,0.26,7,Rain,4
2012-11-16,58,51,44,48,43,35,93,74,55,30.36,30.27,30.21,10,10,10,17,9,22,0.00,3,,7
2012-11-17,58,49,40,48,44,36,83,75,66,30.42,30.39,30.36,10,10,10,22,12,28,0.00,5,,21
2012-11-18,60,56,52,54,51,48,93,83,72,30.36,30.30,30.23,10,9,2,24,17,31,0.09,8,Rain,26
2012-11-19,58,55,51,52,51,48,93,87,80,30.22,30.17,30.12,10,9,2,22,14,31,T,8,Rain,7
2012-11-20,58,54,50,52,49,44,96,87,77,30.12,30.09,30.05,10,8,2,15,9,21,0.00,7,,4
2012-11-21,61,54,46,47,45,42,93,74,55,30.15,30.10,30.06,10,10,10,16,8,23,0.00,4,,14
2012-11-22,61,51,42,47,42,38,89,79,60,30.18,30.14,30.10,10,10,10,14,9,22,0.00,2,,359
2012-11-23,67,58,49,44,40,34,77,53,29,30.16,29.99,29.87,10,10,10,9,5,13,0.00,0,,234
2012-11-24,54,44,34,44,31,22,89,64,38,30.12,29.98,29.86,10,10,10,18,7,23,0.00,0,,315
2012-11-25,52,40,27,31,24,20,76,52,28,30.21,30.14,30.09,10,10,10,12,4,15,0.00,0,,254
2012-11-26,67,50,33,38,34,28,100,62,24,30.24,30.19,30.13,10,10,6,7,2,10,0.00,0,,219
2012-11-27,65,50,34,47,41,34,93,65,37,30.22,30.18,30.12,10,10,5,17,3,22,0.04,3,Rain,248
2012-11-28,52,41,30,45,35,29,96,71,46,30.40,30.31,30.19,10,8,1,17,7,23,T,2,Rain,355
2012-11-29,56,41,25,36,30,24,100,69,38,30.51,30.43,30.40,10,6,1,8,1,12,0.00,0,Fog,100
2012-11-30,61,45,28,41,33,27,92,64,36,30.45,30.39,30.34,10,7,0,7,1,8,0.00,0,Fog,117